Wind_Speed
58 55 53 51 50 51 40 30 25 23 21 17 16 15 15 14 14 14 13 11 10 7 6 5 5 6 5 3 2 2 4 5 7 9 10 11 11 12 14 17 19 20 21 21 21 18 17 18 18
60 60 58 58 57 57 47 33 28 27 25 21 18 17 17 15 15 17 16 13 12 10 9 6 6 5 3 2 2 3 4 6 8 9 11 12 13 16 19 22 24 24 23 22 19 17 17 18 19
61 63 64 64 63 62 53 39 36 33 27 25 22 20 18 17 17 19 18 16 15 13 11 9 7 6 4 5 5 6 6 7 9 10 12 13 16 20 23 26 25 22 16 15 15 15 16 18 20
62 65 68 70 68 62 56 44 42 39 33 29 26 25 22 20 20 21 20 20 18 15 14 11 9 7 7 6 8 6 6 8 10 13 17 19 22 25 27 24 18 15 14 14 15 16 19 20 21
66 66 69 69 69 67 61 53 41 41 37 33 30 26 24 22 22 23 22 22 19 18 15 13 12 10 8 8 8 6 7 9 12 15 20 23 24 24 20 17 15 14 15 16 17 18 20 22 24
72 71 70 69 68 67 68 58 47 45 42 38 34 29 28 25 24 26 25 23 22 20 17 15 13 12 10 9 8 8 10 11 14 17 21 23 23 19 17 16 15 14 16 18 20 22 24 27 29
76 76 70 67 69 68 70 61 54 49 45 39 36 35 31 28 26 28 26 25 24 22 19 17 15 13 11 10 10 11 12 13 15 19 23 23 21 18 16 15 15 16 17 20 23 26 29 31 34
83 81 77 71 70 71 69 61 56 54 49 47 41 38 33 29 29 30 29 27 25 24 21 19 17 15 13 12 11 13 13 15 16 19 23 23 20 18 17 16 17 18 21 24 28 31 35 37 38
88 86 78 74 73 71 70 61 55 55 58 47 44 37 35 33 32 33 29 28 27 26 23 21 18 16 14 13 13 14 15 18 19 20 23 23 20 17 17 18 20 23 26 29 33 36 39 42 42
88 92 82 78 75 74 68 64 54 54 53 48 42 37 34 35 34 35 30 28 28 27 25 22 19 17 15 14 13 15 17 19 21 21 24 24 21 18 19 20 23 27 31 35 38 40 40 40 37
75 90 88 80 79 82 74 66 60 53 52 45 38 35 35 36 36 35 30 29 29 28 26 23 20 18 16 14 15 16 18 20 22 22 24 23 22 20 21 24 27 31 35 38 38 38 39 36 32
57 78 85 83 84 84 75 60 59 55 51 45 42 38 39 38 37 36 32 31 30 28 26 23 21 19 16 15 15 17 19 20 22 22 23 22 22 22 23 26 30 34 37 36 38 39 37 29 21
56 60 77 78 88 84 73 63 59 53 53 46 42 41 41 40 40 37 34 31 30 29 26 23 21 19 17 16 16 18 19 21 22 23 23 22 23 24 25 28 32 36 34 36 37 36 29 20 16
48 46 68 76 85 79 72 61 57 58 52 48 46 45 43 40 39 38 35 33 32 30 27 24 22 20 18 17 18 19 21 22 23 24 24 23 23 25 27 30 33 33 31 33 33 28 21 17 15
49 45 56 73 77 75 64 61 60 58 54 52 50 48 46 42 41 38 36 34 30 29 27 26 23 21 19 18 19 21 22 22 25 26 25 24 25 26 28 31 34 29 27 28 27 23 17 15 17
49 40 38 66 68 71 65 64 58 57 55 54 53 50 47 45 43 41 35 30 29 30 28 26 24 23 20 19 21 23 23 24 25 27 27 26 27 27 30 33 34 27 24 22 23 21 18 18 19
41 44 30 56 68 62 64 60 61 57 57 56 55 52 49 47 46 41 38 35 34 30 27 27 25 23 22 21 24 24 24 26 28 28 28 28 29 30 32 34 34 28 23 20 20 20 18 16 16
43 40 42 49 66 60 63 59 62 59 59 58 56 53 49 48 45 44 41 38 33 32 30 27 26 25 23 24 25 26 26 27 28 29 29 29 30 32 34 37 34 29 26 24 23 20 18 19 19
20 39 39 42 59 57 62 62 63 62 62 60 58 55 50 49 47 45 43 39 36 34 30 26 28 25 26 26 28 29 28 28 30 31 31 31 32 34 36 39 34 32 29 28 27 23 21 20 22
30 28 36 38 58 55 60 64 62 62 61 59 56 53 51 51 49 46 42 38 37 33 30 28 28 28 28 29 30 30 28 29 31 33 32 32 33 35 38 38 35 34 31 29 29 25 24 24 25
24 30 32 42 51 52 58 63 62 62 62 61 59 56 52 50 49 46 42 40 37 33 32 29 30 31 30 31 31 30 28 30 33 34 33 33 34 36 40 37 36 33 29 29 29 27 27 27 27
28 24 24 40 47 56 61 61 61 62 62 60 58 54 52 50 50 47 44 40 37 36 32 32 32 32 32 32 30 28 30 33 36 34 34 34 35 39 39 37 34 30 29 31 29 28 27 29 30
23 32 26 39 42 49 55 55 58 62 63 60 58 55 53 49 47 45 43 42 40 36 33 33 34 33 32 29 29 30 32 35 36 35 36 36 37 39 38 35 31 30 30 30 29 29 28 30 32
25 25 32 39 38 42 52 53 58 62 61 60 56 54 52 48 47 45 44 42 39 36 34 33 33 32 27 29 34 34 34 39 35 37 37 36 39 38 36 32 32 32 31 30 30 30 30 32 34
27 27 33 38 36 45 48 51 41 57 55 53 53 51 50 48 46 45 43 41 38 35 35 32 33 30 29 36 35 36 39 38 37 38 37 37 39 38 34 32 33 31 30 30 30 31 32 34 36
26 30 36 40 34 44 46 48 43 56 53 51 51 51 48 46 44 42 40 38 37 36 34 30 30 30 34 34 36 39 40 39 39 39 37 39 39 37 34 34 33 33 33 34 34 34 36 37 39
24 31 35 28 34 38 46 47 54 51 49 49 50 48 45 43 41 39 38 36 35 33 30 31 32 34 35 37 38 41 40 41 40 38 38 41 41 38 36 36 35 35 37 38 38 39 40 42 43
22 34 34 28 31 30 43 46 47 46 48 49 48 46 43 40 37 37 35 33 32 28 29 33 36 35 36 39 42 41 41 41 39 39 41 42 42 39 37 37 38 39 40 42 42 43 45 46 46
29 33 30 39 30 25 41 45 44 45 45 45 44 41 39 38 37 35 33 30 27 33 35 37 35 36 39 42 41 42 41 38 38 41 42 43 42 39 38 40 41 42 43 45 46 47 48 48 48
28 37 34 25 34 26 26 39 41 40 42 40 40 38 37 36 35 33 30 27 30 35 34 35 35 39 42 42 43 42 38 39 40 42 45 44 41 40 41 43 45 45 47 49 51 51 51 51 53
Wind_Direction
245 246 247 247 246 246 241 236 236 241 242 245 252 260 265 268 259 254 247 242 234 214 191 173 168 154 143 121 51 355 336 338 335 329 326 327 329 328 328 328 324 318 314 313 314 309 308 307 304
246 245 245 246 245 248 243 236 236 241 243 246 249 257 260 266 257 249 243 237 226 217 210 194 175 176 180 233 286 306 323 328 332 328 326 321 318 321 321 320 318 316 313 311 311 310 308 307 306
241 244 244 244 245 246 246 240 238 240 243 245 247 251 260 262 258 249 243 234 225 221 217 214 216 217 230 264 279 301 318 328 327 323 319 319 317 316 314 314 312 316 315 312 310 311 311 309 307
240 239 242 241 242 245 249 240 239 242 242 246 246 250 262 262 254 244 241 236 228 226 225 223 227 228 249 256 283 298 316 322 321 323 324 320 317 315 312 314 316 318 320 319 316 315 313 312 310
238 238 238 240 241 243 244 243 237 243 243 244 247 250 259 256 249 240 239 236 230 225 223 226 226 237 245 266 281 293 306 313 323 331 334 326 321 321 322 324 323 324 321 320 319 318 314 310 309
236 237 237 238 240 241 243 242 240 242 243 246 248 248 250 255 246 239 236 232 230 226 225 225 231 239 250 266 279 288 297 311 322 331 334 329 323 322 322 322 322 323 323 322 319 315 312 309 307
233 234 236 237 238 239 242 239 240 244 246 247 247 246 249 254 247 239 235 231 229 226 224 227 233 242 253 266 275 285 300 310 317 329 331 327 322 318 319 319 318 321 321 318 315 314 311 307 304
232 230 231 233 235 236 238 237 238 240 244 244 248 247 248 251 246 236 231 230 229 226 225 228 235 243 253 264 274 288 299 305 316 327 330 328 322 316 316 317 318 318 317 315 313 311 309 306 304
231 230 227 229 231 235 236 235 234 237 241 243 245 248 249 247 241 233 228 228 229 228 226 231 235 244 253 263 274 287 295 301 312 322 326 325 317 311 311 314 315 315 313 312 310 311 309 305 302
231 227 223 225 228 231 234 232 231 234 237 238 239 239 239 236 236 230 225 225 228 229 230 231 236 244 252 262 274 285 293 300 308 314 320 318 310 305 309 312 313 314 314 313 313 312 310 307 303
233 226 223 223 225 226 226 226 225 227 230 229 230 234 232 228 230 226 222 224 227 227 229 232 238 244 250 261 274 284 292 301 309 313 315 312 305 303 308 311 314 315 315 315 315 316 317 315 309
235 227 224 221 223 225 224 224 226 222 224 222 223 221 222 223 222 219 218 220 224 226 228 231 239 245 251 262 274 284 294 302 308 315 314 309 302 302 306 311 312 315 316 319 323 324 323 319 320
231 224 222 221 221 221 221 219 220 216 218 215 217 219 219 221 219 216 216 219 224 227 229 234 240 246 253 264 276 286 293 300 306 313 312 306 301 301 305 309 313 317 319 324 326 326 323 319 318
226 228 221 218 220 221 218 214 213 215 211 208 211 213 215 217 218 216 217 217 221 226 229 235 240 246 255 265 279 287 292 298 305 310 308 301 297 299 305 309 315 319 323 325 326 321 320 316 312
220 226 220 217 217 217 215 210 211 212 207 205 207 212 211 211 211 211 214 218 219 228 230 236 241 248 255 269 282 286 290 298 304 304 302 300 298 302 307 311 318 320 320 324 326 317 311 307 306
221 205 216 217 212 216 210 208 204 207 205 204 206 208 211 209 208 211 213 219 223 228 232 238 243 250 260 272 283 285 289 295 300 303 302 299 298 303 308 315 323 318 312 318 328 324 311 303 306
218 212 213 219 210 211 210 202 204 203 204 203 206 206 208 208 207 210 217 221 224 226 232 238 244 253 263 276 281 284 288 292 299 302 301 297 299 305 311 318 324 316 303 305 316 319 322 314 311
213 214 225 216 204 204 204 195 201 200 203 203 206 206 206 206 205 210 217 219 221 227 231 239 248 254 267 275 283 285 287 290 298 302 298 296 300 306 313 319 322 314 299 289 296 306 313 313 310
183 202 220 214 202 204 199 197 198 199 201 203 205 207 205 205 206 209 214 217 220 226 231 238 250 256 265 278 283 285 286 291 296 299 297 297 301 308 314 319 319 314 300 284 284 294 297 305 305
181 201 217 208 198 198 196 200 197 200 200 203 206 207 206 206 208 212 214 217 222 228 234 238 250 259 267 276 281 285 288 290 296 298 296 298 303 309 315 317 316 310 299 290 280 285 295 300 303
199 205 211 208 191 194 195 202 197 199 200 201 203 205 207 207 210 213 215 218 224 230 234 241 254 262 269 276 280 283 285 292 296 296 296 298 304 309 314 315 311 306 299 291 285 280 287 296 303
206 200 209 202 190 192 194 201 198 199 200 201 204 206 207 209 211 213 217 221 225 230 238 248 256 262 270 273 278 281 285 295 295 296 296 299 303 312 313 312 307 303 297 292 289 277 282 291 297
208 193 199 195 187 196 200 202 200 199 200 201 203 205 208 208 211 214 218 221 225 232 241 248 256 259 267 274 277 282 289 290 293 294 294 299 308 312 310 307 303 299 296 295 290 281 282 289 296
198 195 192 185 187 200 200 203 202 201 200 202 203 205 208 209 211 214 218 222 229 236 243 251 256 263 268 275 279 279 285 288 290 291 295 302 308 309 306 301 300 297 295 296 291 287 289 293 296
192 184 175 183 192 194 195 201 208 201 202 203 206 207 208 209 212 216 222 227 232 237 243 248 257 259 274 272 273 280 284 288 288 290 296 304 307 306 302 299 300 298 296 294 294 294 294 296 299
177 180 185 191 184 190 192 197 200 201 201 204 207 208 210 211 213 216 221 227 232 237 243 249 255 259 270 275 276 282 286 286 287 292 299 305 307 303 299 297 297 296 292 293 294 295 296 296 297
191 184 183 191 188 193 193 195 202 200 200 204 207 210 211 213 215 218 222 228 234 238 247 255 253 262 264 267 269 281 284 285 289 295 301 305 305 301 297 296 296 293 291 292 294 296 295 295 295
192 180 185 181 182 187 192 197 201 199 201 204 208 210 212 213 215 219 223 229 236 241 249 252 257 262 264 267 277 282 283 286 292 296 302 305 303 299 296 295 295 292 290 292 294 294 294 294 294
187 189 196 184 175 182 192 198 199 200 201 205 209 211 212 214 216 220 224 228 239 252 253 256 258 261 266 273 280 280 284 290 293 299 303 302 300 296 294 293 292 291 292 292 291 291 292 292 290
192 186 196 183 174 174 182 202 199 202 202 205 208 211 214 216 218 221 227 237 247 251 251 254 259 263 270 276 276 283 289 291 297 301 301 300 297 294 292 291 292 291 290 290 291 292 292 291 290
Height
5840 5844 5847 5849 5852 5849 5858 5867 5869 5870 5871 5873 5873 5874 5874 5874 5876 5878 5877 5877 5878 5879 5879 5879 5878 5879 5879 5879 5879 5879 5879 5879 5878 5878 5877 5876 5875 5874 5873 5872 5870 5869 5867 5866 5864 5863 5862 5861 5860
5832 5835 5837 5839 5840 5840 5852 5864 5865 5865 5866 5869 5871 5871 5872 5873 5873 5874 5875 5875 5876 5877 5877 5878 5878 5879 5879 5879 5878 5878 5878 5878 5877 5877 5876 5875 5874 5873 5871 5869 5868 5866 5864 5863 5862 5860 5859 5858 5857
5821 5824 5827 5827 5830 5831 5845 5858 5859 5859 5863 5865 5868 5868 5869 5870 5871 5872 5873 5874 5874 5875 5876 5877 5878 5878 5878 5878 5878 5877 5877 5877 5876 5875 5874 5874 5873 5871 5869 5867 5865 5863 5861 5860 5859 5858 5857 5855 5854
5808 5812 5816 5817 5821 5831 5837 5850 5853 5853 5858 5861 5863 5864 5867 5867 5868 5869 5871 5872 5873 5874 5875 5875 5876 5877 5877 5877 5877 5876 5876 5875 5874 5874 5873 5872 5870 5868 5865 5863 5861 5860 5859 5858 5857 5856 5854 5852 5850
5795 5799 5803 5807 5814 5822 5828 5838 5848 5848 5852 5854 5857 5862 5862 5863 5865 5866 5868 5869 5871 5872 5873 5874 5874 5875 5875 5876 5876 5875 5874 5873 5872 5872 5870 5869 5866 5864 5862 5860 5859 5858 5857 5856 5854 5852 5851 5849 5847
5781 5786 5791 5799 5806 5813 5817 5830 5839 5841 5845 5849 5852 5856 5857 5859 5862 5862 5864 5867 5868 5869 5871 5872 5873 5873 5874 5874 5874 5873 5872 5872 5870 5869 5868 5865 5863 5861 5859 5858 5857 5856 5854 5853 5851 5849 5847 5845 5842
5766 5771 5783 5792 5796 5802 5807 5820 5830 5835 5837 5843 5845 5849 5853 5856 5857 5859 5861 5863 5865 5867 5868 5869 5870 5871 5872 5872 5872 5872 5871 5869 5868 5867 5865 5863 5860 5859 5858 5856 5855 5854 5852 5850 5848 5845 5842 5840 5837
5750 5754 5767 5779 5785 5791 5796 5811 5821 5825 5830 5834 5840 5844 5848 5851 5852 5854 5857 5859 5862 5864 5865 5867 5868 5869 5869 5870 5870 5869 5869 5867 5866 5864 5862 5860 5858 5857 5856 5855 5853 5851 5849 5847 5844 5841 5837 5834 5830
5728 5739 5754 5768 5774 5781 5788 5800 5810 5816 5818 5829 5832 5839 5844 5845 5847 5850 5852 5855 5858 5860 5862 5864 5865 5866 5867 5867 5867 5867 5866 5865 5864 5862 5860 5858 5856 5855 5854 5852 5850 5848 5846 5843 5839 5836 5831 5827 5823
5707 5723 5743 5754 5763 5768 5777 5788 5800 5807 5813 5820 5826 5832 5837 5838 5841 5845 5848 5851 5854 5857 5859 5860 5862 5863 5864 5864 5864 5864 5863 5862 5861 5859 5857 5855 5854 5852 5851 5849 5847 5844 5841 5837 5833 5829 5824 5820 5815
5694 5707 5727 5737 5742 5749 5762 5774 5786 5796 5804 5812 5820 5826 5830 5832 5835 5840 5844 5847 5850 5853 5856 5858 5859 5860 5861 5861 5861 5861 5860 5859 5858 5856 5855 5852 5851 5850 5848 5846 5843 5840 5836 5831 5827 5822 5816 5811 5808
5676 5693 5703 5718 5726 5736 5755 5769 5776 5787 5796 5804 5811 5817 5821 5825 5830 5834 5839 5842 5846 5849 5852 5854 5856 5857 5858 5858 5858 5858 5857 5856 5855 5853 5851 5849 5848 5847 5845 5842 5839 5835 5830 5826 5820 5815 5810 5806 5804
5664 5678 5687 5702 5711 5725 5742 5757 5767 5778 5787 5796 5805 5809 5815 5819 5824 5830 5834 5838 5842 5846 5849 5851 5853 5854 5855 5855 5855 5854 5854 5852 5851 5850 5848 5846 5845 5843 5841 5838 5835 5830 5825 5819 5815 5810 5806 5804 5802
5662 5668 5674 5685 5699 5717 5731 5746 5758 5767 5779 5788 5796 5801 5808 5813 5820 5826 5830 5834 5838 5842 5845 5847 5849 5850 5851 5852 5851 5851 5850 5849 5848 5846 5844 5842 5840 5839 5836 5834 5830 5825 5819 5814 5810 5807 5804 5802 5800
5650 5656 5662 5674 5690 5705 5721 5734 5748 5759 5770 5779 5786 5793 5800 5807 5814 5820 5825 5829 5834 5838 5841 5843 5845 5846 5848 5848 5847 5847 5846 5845 5844 5842 5840 5838 5836 5834 5832 5829 5825 5820 5815 5811 5807 5804 5801 5799 5797
5640 5647 5655 5666 5681 5695 5710 5728 5741 5753 5763 5771 5779 5786 5794 5801 5808 5814 5820 5826 5829 5834 5837 5839 5841 5842 5843 5843 5843 5843 5843 5842 5840 5838 5836 5833 5831 5829 5827 5824 5819 5815 5811 5808 5805 5801 5799 5796 5794
5631 5637 5645 5656 5672 5689 5703 5722 5731 5746 5756 5764 5772 5779 5787 5795 5801 5809 5815 5820 5825 5829 5832 5835 5837 5838 5839 5838 5839 5839 5839 5838 5836 5833 5831 5829 5827 5824 5821 5818 5814 5810 5807 5804 5802 5799 5796 5793 5791
5630 5636 5645 5651 5664 5679 5696 5714 5723 5737 5748 5757 5765 5773 5781 5789 5797 5803 5809 5815 5820 5824 5827 5830 5832 5833 5833 5834 5835 5835 5834 5833 5831 5828 5826 5824 5821 5819 5816 5812 5808 5805 5802 5800 5798 5795 5793 5790 5788
5625 5635 5642 5653 5665 5678 5691 5704 5716 5728 5739 5749 5757 5766 5775 5783 5791 5797 5803 5810 5815 5819 5822 5824 5828 5828 5829 5830 5830 5830 5830 5827 5825 5823 5821 5819 5816 5814 5810 5805 5802 5799 5796 5794 5793 5791 5788 5786 5784
5623 5631 5639 5650 5658 5673 5686 5696 5711 5722 5733 5744 5754 5762 5770 5778 5786 5793 5800 5805 5809 5814 5817 5819 5822 5823 5824 5825 5825 5825 5824 5822 5820 5817 5815 5813 5811 5808 5804 5799 5795 5792 5790 5788 5787 5785 5783 5780 5778
5624 5631 5638 5643 5658 5673 5682 5691 5705 5715 5724 5735 5745 5755 5764 5773 5781 5789 5795 5799 5805 5809 5812 5815 5817 5818 5819 5819 5819 5819 5818 5816 5814 5811 5809 5807 5805 5801 5797 5792 5789 5786 5784 5782 5780 5779 5778 5775 5773
5625 5633 5638 5645 5653 5664 5676 5688 5698 5709 5721 5731 5742 5752 5760 5767 5775 5783 5789 5795 5800 5804 5808 5810 5811 5813 5813 5814 5814 5812 5811 5810 5807 5805 5803 5801 5798 5795 5790 5786 5783 5781 5779 5776 5774 5772 5771 5769 5767
5626 5630 5637 5646 5656 5666 5676 5684 5698 5703 5714 5726 5736 5745 5754 5763 5771 5778 5785 5789 5794 5799 5802 5804 5806 5808 5808 5808 5807 5806 5805 5803 5801 5799 5797 5794 5791 5787 5783 5780 5777 5775 5773 5770 5768 5766 5764 5762 5760
5627 5631 5635 5646 5656 5661 5673 5686 5690 5701 5713 5722 5732 5741 5750 5758 5766 5773 5779 5784 5789 5793 5796 5799 5800 5802 5802 5802 5801 5800 5798 5796 5794 5792 5790 5788 5785 5780 5777 5773 5771 5768 5766 5763 5761 5759 5757 5754 5752
5627 5631 5637 5647 5652 5660 5668 5681 5688 5699 5711 5722 5731 5738 5746 5754 5761 5768 5774 5779 5784 5788 5790 5793 5795 5796 5795 5796 5795 5793 5791 5789 5787 5785 5783 5781 5777 5773 5770 5767 5764 5762 5759 5757 5755 5752 5749 5747 5743
5629 5634 5640 5645 5645 5656 5668 5677 5685 5698 5708 5719 5728 5734 5742 5750 5757 5763 5769 5774 5778 5782 5785 5787 5789 5789 5789 5789 5787 5786 5784 5782 5780 5778 5776 5773 5769 5766 5763 5760 5758 5755 5752 5750 5747 5744 5741 5738 5734
5631 5636 5642 5647 5653 5661 5667 5676 5685 5696 5706 5715 5723 5731 5739 5746 5753 5759 5764 5768 5772 5776 5778 5780 5782 5783 5782 5782 5780 5779 5777 5775 5773 5771 5768 5765 5761 5758 5755 5753 5750 5747 5744 5741 5739 5735 5731 5728 5724
5631 5638 5644 5648 5655 5661 5668 5677 5683 5694 5703 5711 5720 5728 5735 5743 5750 5755 5759 5763 5767 5770 5773 5775 5776 5776 5775 5774 5773 5771 5770 5768 5765 5763 5760 5756 5753 5750 5747 5744 5741 5738 5735 5732 5729 5725 5721 5717 5712
5633 5638 5642 5650 5655 5662 5667 5676 5684 5692 5701 5710 5718 5726 5733 5740 5745 5749 5754 5758 5762 5765 5767 5768 5769 5768 5768 5767 5765 5763 5762 5760 5758 5755 5751 5747 5744 5740 5737 5734 5731 5728 5724 5721 5717 5713 5709 5705 5700
5632 5634 5640 5646 5655 5662 5668 5676 5684 5692 5700 5707 5715 5722 5729 5735 5740 5745 5750 5753 5757 5759 5761 5762 5761 5761 5760 5759 5757 5755 5754 5752 5749 5745 5742 5738 5734 5731 5727 5724 5720 5717 5713 5709 5705 5701 5696 5692 5687